Weather History for New Braunfels, TX

Change the Weather History Date:

Saturday, December 14, 2013

  Actual Average (KSAT) Record (KSAT)
Temperature  
Mean Temperature 47 °F 53 °F  
Max Temperature 55 °F 64 °F 85 °F (1908)
Min Temperature 39 °F 42 °F 22 °F (1966)
Degree Days  
Heating Degree Days 18 13  
Month to date heating degree days 160  
Since 1 July heating degree days 371  
Cooling Degree Days 0 0  
Month to date cooling degree days 7  
Year to date cooling degree days 3124  
Moisture  
Dew Point 42 °F    
Average Humidity 84    
Maximum Humidity 100    
Minimum Humidity 54    
Precipitation  
Precipitation 0.00 in 0.06 in 1.98 in (1937)
Month to date precipitation 0.83  
Year to date precipitation 31.19  
Snow  
Snow 0.00 in - - ()
Month to date snowfall  
Since 1 July snowfall  
Snow Depth -    
Sea Level Pressure  
Sea Level Pressure 30.02 in    
Wind  
Wind Speed 9 mph (NW)    
Max Wind Speed 25 mph    
Max Gust Speed 31 mph    
Visibility 6 miles    
Events Fog    
T = Trace of Precipitation, MM = Missing Value Source: NWS Daily Summary

Daily Weather History Graph

Daily Weather History Graph

Search for Another Location

Airport:

Trip Planner

Search our weather history database for the weather conditions in past years. The results will help you decide how hot, cold, wet, or windy it might be!

Date:

Astronomy

Dec. 14, 2013 Rise Set
Actual Time 7:19 AM CST 5:34 PM CST
Civil Twilight 6:53 AM CST 6:00 PM CST
Nautical Twilight 6:23 AM CST 6:30 PM CST
Astronomical Twilight 5:54 AM CST 6:59 PM CST
Moon 3:50 PM CST (12/14) 4:49 AM CST (12/14)
Length of Visible Light 11h 07m
Length of Day
10h 15m
Waxing Gibbous, 94% of the Moon is Illuminated
Dec 14
Waxing Gibbous
Dec 17
Full
Dec 25
Last Quarter
Jan 1
New
Jan 7
First Quarter

Hourly Weather History & Observations

Time (CST) Temp. Windchill Dew Point Humidity Pressure Visibility Wind Dir Wind Speed Gust Speed Precip Events Conditions
12:51 AM 50.0 °F - 50.0 °F 100% 29.91 in 3.0 mi West 9.2 mph - N/A   Overcast
1:51 AM 48.9 °F - 48.9 °F 100% 29.90 in 3.0 mi West 8.1 mph - N/A   Overcast
2:14 AM 48.2 °F - 48.2 °F 100% 29.90 in 2.5 mi West 6.9 mph - N/A   Overcast
2:22 AM 48.2 °F - 48.2 °F 100% 29.89 in 1.5 mi West 5.8 mph - N/A   Overcast
2:30 AM 48.2 °F - 48.2 °F 100% 29.90 in 1.0 mi West 6.9 mph - N/A   Overcast
2:40 AM 48.2 °F - 48.2 °F 100% 29.89 in 0.5 mi West 6.9 mph - N/A Fog Fog
2:51 AM 48.0 °F - 48.0 °F 100% 29.90 in 0.5 mi WSW 6.9 mph - N/A Fog Fog
2:58 AM 48.2 °F - 48.2 °F 100% 29.90 in 0.2 mi WSW 9.2 mph - N/A Fog Fog
3:11 AM 48.2 °F - 48.2 °F 100% 29.89 in 0.5 mi West 9.2 mph - N/A Fog Fog
3:28 AM 48.2 °F - 48.2 °F 100% 29.89 in 0.2 mi West 8.1 mph - N/A Fog Fog
3:51 AM 46.9 °F - 46.9 °F 100% 29.89 in 0.2 mi WSW 6.9 mph - N/A Fog Fog
4:12 AM 44.6 °F 40.7 °F 44.6 °F 100% 29.90 in 1.0 mi West 6.9 mph - N/A   Mist
4:14 AM 44.6 °F 41.4 °F 44.6 °F 100% 29.90 in 1.8 mi West 5.8 mph - N/A   Mostly Cloudy
4:16 AM 44.6 °F 42.2 °F 44.6 °F 100% 29.90 in 3.0 mi West 4.6 mph - N/A   Mostly Cloudy
4:24 AM 44.6 °F 43.1 °F 44.6 °F 100% 29.90 in 4.0 mi NNW 3.5 mph - N/A   Scattered Clouds
4:30 AM 42.8 °F 41.1 °F 42.8 °F 100% 29.91 in 1.8 mi NNW 3.5 mph - N/A   Partly Cloudy
4:32 AM 42.8 °F 40.1 °F 42.8 °F 100% 29.91 in 1.0 mi NNW 4.6 mph - N/A   Mist
4:34 AM 42.8 °F 40.1 °F 42.8 °F 100% 29.91 in 0.8 mi NNW 4.6 mph - N/A   Clear
4:44 AM 42.8 °F 38.6 °F 42.8 °F 100% 29.92 in 1.2 mi WNW 6.9 mph - N/A   Clear
4:46 AM 42.8 °F 38.6 °F 42.8 °F 100% 29.91 in 2.0 mi WNW 6.9 mph - N/A   Clear
4:51 AM 43.0 °F 38.2 °F 43.0 °F 100% 29.92 in 9.0 mi WNW 8.1 mph - N/A   Clear
5:51 AM 42.1 °F 39.2 °F 42.1 °F 100% 29.93 in 10.0 mi WNW 4.6 mph - N/A   Clear
6:51 AM 42.1 °F 38.4 °F 42.1 °F 100% 29.96 in 10.0 mi NW 5.8 mph - N/A   Clear
7:51 AM 39.0 °F 36.8 °F 39.0 °F 100% 30.00 in 5.0 mi WSW 3.5 mph - N/A   Clear
8:51 AM 51.1 °F - 45.0 °F 80% 30.03 in 10.0 mi NNW 10.4 mph - N/A   Clear
9:51 AM 53.1 °F - 42.1 °F 66% 30.06 in 10.0 mi North 17.3 mph 24.2 mph N/A   Clear
10:51 AM 55.0 °F - 39.9 °F 57% 30.10 in 10.0 mi North 19.6 mph - N/A   Clear
11:51 AM 54.0 °F - 42.1 °F 64% 30.12 in 10.0 mi North 25.3 mph 29.9 mph N/A   Partly Cloudy
12:28 PM 53.6 °F - 41.0 °F 62% 30.13 in 10.0 mi North 24.2 mph 31.1 mph N/A   Mostly Cloudy
12:51 PM 53.1 °F - 41.0 °F 64% 30.12 in 10.0 mi North 21.9 mph 27.6 mph N/A   Mostly Cloudy
1:14 PM 53.6 °F - 39.2 °F 58% 30.12 in 10.0 mi NNW 21.9 mph 31.1 mph N/A   Partly Cloudy
1:51 PM 54.0 °F - 39.9 °F 59% 30.12 in 10.0 mi North 21.9 mph 27.6 mph N/A   Clear
2:51 PM 55.0 °F - 39.0 °F 55% 30.13 in 10.0 mi North 15.0 mph - N/A   Clear
3:51 PM 55.0 °F - 39.0 °F 55% 30.14 in 10.0 mi North 13.8 mph 24.2 mph N/A   Clear
4:51 PM 52.0 °F - 36.0 °F 54% 30.19 in 10.0 mi North 18.4 mph 25.3 mph N/A   Clear
5:51 PM 48.0 °F - 36.0 °F 63% 30.22 in 10.0 mi North 9.2 mph - N/A   Clear
6:51 PM 46.0 °F 40.6 °F 35.1 °F 66% 30.24 in 10.0 mi North 11.5 mph - N/A   Clear
7:51 PM 44.1 °F 38.6 °F 32.0 °F 63% 30.27 in 10.0 mi North 10.4 mph - N/A   Clear
8:51 PM 43.0 °F 37.2 °F 30.9 °F 62% 30.29 in 10.0 mi North 10.4 mph - N/A   Clear
9:51 PM 43.0 °F 36.8 °F 30.9 °F 62% 30.30 in 10.0 mi North 11.5 mph - N/A   Clear
10:51 PM 44.1 °F 38.1 °F 30.9 °F 60% 30.32 in 10.0 mi North 11.5 mph - N/A   Clear
11:51 PM 43.0 °F 35.1 °F 30.0 °F 60% 30.32 in 10.0 mi North 17.3 mph - N/A   Clear